Weather History for Langdon, ND

Change the Weather History Date:

Friday, October 7, 2011

  Actual Average (KDVL) Record (KDVL)
Temperature  
Mean Temperature 63 °F -  
Max Temperature 71 °F 56 °F 82 °F (2003)
Min Temperature 55 °F 35 °F 18 °F (1976)
Degree Days  
Heating Degree Days 2    
Growing Degree Days 13 (Base 50)    
Moisture  
Dew Point 45 °F    
Average Humidity 52    
Maximum Humidity 82    
Minimum Humidity 23    
Precipitation  
Precipitation 0.00 in - - ()
Sea Level Pressure  
Sea Level Pressure 29.48 in    
Wind  
Wind Speed 29 mph (South)    
Max Wind Speed 45 mph    
Max Gust Speed 68 mph    
Visibility 10 miles    
Events Rain    
Averages and records for this station are not official NWS values.
T = Trace of Precipitation, MM = Missing Value Source: NWS Daily Summary

Daily Weather History Graph

Daily Weather History Graph

Search for Another Location

Airport:

Trip Planner

Search our weather history database for the weather conditions in past years. The results will help you decide how hot, cold, wet, or windy it might be!

Date:

Astronomy

Oct. 07, 2011 Rise Set
Actual Time 7:41 AM CDT 7:00 PM CDT
Civil Twilight 7:10 AM CDT 7:31 PM CDT
Nautical Twilight 6:33 AM CDT 8:08 PM CDT
Astronomical Twilight 5:56 AM CDT 8:45 PM CDT
Moon 4:59 PM CDT (10/7) 3:12 AM CDT (10/7)
Length of Visible Light 12h 21m
Length of Day
11h 18m
Waxing Gibbous, 83% of the Moon is Illuminated
Oct 7
Waxing Gibbous
Oct 11
Full
Oct 19
Last Quarter
Oct 26
New
Nov 2
First Quarter

Hourly Weather History & Observations

Time (CDT) Temp. Dew Point Humidity Pressure Visibility Wind Dir Wind Speed Gust Speed Precip Events Conditions
12:15 AM 68.0 °F 39.2 °F 35% 29.66 in 10.0 mi SSE 29.9 mph 38.0 mph N/A   Clear
12:35 AM 68.0 °F 39.2 °F 35% 29.66 in 10.0 mi SSE 27.6 mph 39.1 mph N/A   Clear
1:15 AM 68.0 °F 39.2 °F 35% 29.64 in 10.0 mi SSE 23.0 mph 33.4 mph N/A   Scattered Clouds
1:35 AM 66.2 °F 39.2 °F 37% 29.63 in 10.0 mi SSE 24.2 mph 32.2 mph N/A   Clear
1:55 AM 66.2 °F 41.0 °F 40% 29.62 in 10.0 mi SSE 24.2 mph 34.5 mph N/A   Clear
2:35 AM 66.2 °F 41.0 °F 40% 29.59 in 10.0 mi SSE 25.3 mph 34.5 mph N/A   Clear
2:55 AM 66.2 °F 41.0 °F 40% 29.58 in 10.0 mi SSE 28.8 mph 35.7 mph N/A   Clear
3:15 AM 66.2 °F 41.0 °F 40% 29.57 in 10.0 mi SSE 28.8 mph 36.8 mph N/A   Clear
3:35 AM 64.4 °F 41.0 °F 42% 29.55 in 10.0 mi SSE 27.6 mph 36.8 mph N/A   Clear
3:55 AM 64.4 °F 41.0 °F 42% 29.57 in 10.0 mi SSE 25.3 mph 36.8 mph N/A   Clear
4:15 AM 64.4 °F 41.0 °F 42% 29.57 in 10.0 mi SSE 24.2 mph 31.1 mph N/A   Clear
4:55 AM 64.4 °F 42.8 °F 45% 29.55 in 10.0 mi SSE 23.0 mph 33.4 mph N/A   Partly Cloudy
5:15 AM 64.4 °F 44.6 °F 49% 29.55 in 10.0 mi SSE 24.2 mph 34.5 mph N/A   Partly Cloudy
5:35 AM 64.4 °F 44.6 °F 49% 29.54 in 10.0 mi SSE 24.2 mph 32.2 mph N/A   Clear
5:55 AM 64.4 °F 46.4 °F 52% 29.54 in 10.0 mi SSE 23.0 mph 29.9 mph N/A   Mostly Cloudy
6:15 AM 64.4 °F 48.2 °F 56% 29.52 in 10.0 mi South 26.5 mph 35.7 mph N/A   Scattered Clouds
6:35 AM 62.6 °F 48.2 °F 59% 29.51 in 10.0 mi SSE 28.8 mph 35.7 mph N/A   Clear
7:15 AM 62.6 °F 50.0 °F 63% 29.50 in 10.0 mi SSE 25.3 mph 34.5 mph N/A   Clear
7:35 AM 60.8 °F 50.0 °F 68% 29.49 in 10.0 mi SSE 26.5 mph 34.5 mph N/A   Clear
7:55 AM 62.6 °F 50.0 °F 63% 29.50 in 10.0 mi South 21.9 mph 36.8 mph N/A   Clear
8:15 AM 62.6 °F 50.0 °F 63% 29.50 in 10.0 mi South 26.5 mph 34.5 mph N/A   Clear
8:35 AM 60.8 °F 51.8 °F 72% 29.50 in 10.0 mi South 25.3 mph 32.2 mph N/A   Clear
8:55 AM 62.6 °F 51.8 °F 68% 29.51 in 10.0 mi South 25.3 mph 33.4 mph N/A   Clear
9:15 AM 62.6 °F 51.8 °F 68% 29.51 in 10.0 mi South 26.5 mph 33.4 mph N/A   Clear
9:35 AM 64.4 °F 53.6 °F 68% 29.50 in 10.0 mi South 27.6 mph 33.4 mph N/A   Clear
9:55 AM 64.4 °F 53.6 °F 68% 29.50 in 10.0 mi South 29.9 mph 36.8 mph N/A   Clear
10:15 AM 66.2 °F 53.6 °F 64% 29.50 in 10.0 mi South 32.2 mph 39.1 mph N/A   Clear
10:35 AM 66.2 °F 51.8 °F 60% 29.50 in 10.0 mi South 23.0 mph 38.0 mph N/A   Partly Cloudy
10:55 AM 66.2 °F 50.0 °F 56% 29.49 in 10.0 mi South 31.1 mph 36.8 mph N/A   Partly Cloudy
11:15 AM 66.2 °F 50.0 °F 56% 29.49 in 10.0 mi South 28.8 mph 35.7 mph N/A   Clear
11:35 AM 66.2 °F 50.0 °F 56% 29.48 in 10.0 mi South 27.6 mph 39.1 mph N/A   Clear
11:55 AM 66.2 °F 50.0 °F 56% 29.48 in 10.0 mi South 28.8 mph 36.8 mph N/A   Partly Cloudy
12:35 PM 68.0 °F 50.0 °F 52% 29.45 in 10.0 mi SSE 29.9 mph 35.7 mph N/A   Clear
12:55 PM 68.0 °F 50.0 °F 52% 29.45 in 10.0 mi SSE 28.8 mph 34.5 mph N/A   Scattered Clouds
1:15 PM 69.8 °F 48.2 °F 46% 29.43 in 10.0 mi SSE 28.8 mph 41.4 mph N/A   Scattered Clouds
1:35 PM 69.8 °F 46.4 °F 43% 29.41 in 10.0 mi SSE 31.1 mph 38.0 mph N/A   Partly Cloudy
1:55 PM 71.6 °F 41.0 °F 33% 29.39 in 10.0 mi South 31.1 mph 42.6 mph N/A   Clear
2:15 PM 71.6 °F 37.4 °F 29% 29.39 in 10.0 mi South 41.4 mph 51.8 mph N/A   Clear
2:35 PM 69.8 °F 32.0 °F 25% 29.39 in 5.0 mi South 44.9 mph 56.4 mph N/A   Haze
3:15 PM 68.0 °F 28.4 °F 23% 29.39 in 10.0 mi SSW 39.1 mph 48.3 mph N/A   Partly Cloudy
3:35 PM 66.2 °F 28.4 °F 24% 29.39 in 10.0 mi South 41.4 mph 51.8 mph N/A   Partly Cloudy
4:15 PM 64.4 °F 32.0 °F 30% 29.39 in 10.0 mi SSW 27.6 mph 40.3 mph N/A   Scattered Clouds
4:35 PM 64.4 °F 33.8 °F 32% 29.39 in 10.0 mi SSW 26.5 mph 44.9 mph N/A   Clear
4:55 PM 64.4 °F 32.0 °F 30% 29.37 in 8.0 mi SSW 38.0 mph 55.2 mph N/A   Clear
5:15 PM 64.4 °F 35.6 °F 34% 29.37 in 7.0 mi SSW 35.7 mph 52.9 mph N/A   Scattered Clouds
5:35 PM 64.4 °F 35.6 °F 34% 29.36 in 10.0 mi SSW 33.4 mph 52.9 mph N/A   Mostly Cloudy
5:55 PM 64.4 °F 39.2 °F 40% 29.37 in 5.0 mi SW 42.6 mph 55.2 mph N/A   Haze
6:15 PM 62.6 °F 41.0 °F 45% 29.36 in 10.0 mi SSW 26.5 mph 38.0 mph N/A   Overcast
6:35 PM 64.4 °F 41.0 °F 42% 29.36 in 10.0 mi SSW 43.7 mph 54.1 mph N/A   Overcast
6:55 PM 64.4 °F 44.6 °F 49% 29.37 in 10.0 mi SSW 40.3 mph 59.8 mph N/A   Overcast
7:15 PM 62.6 °F 46.4 °F 55% 29.39 in 9.0 mi SW 38.0 mph 67.9 mph N/A   Overcast
7:35 PM 60.8 °F 48.2 °F 63% 29.40 in 10.0 mi SSW 39.1 mph 54.1 mph N/A   Overcast
7:55 PM 59.0 °F 51.8 °F 77% 29.41 in 6.0 mi SW 36.8 mph 54.1 mph N/A Rain Light Rain
8:15 PM 59.0 °F 50.0 °F 72% 29.41 in 10.0 mi SW 35.7 mph 42.6 mph N/A   Mostly Cloudy
8:35 PM 59.0 °F 51.8 °F 77% 29.43 in 10.0 mi WSW 31.1 mph 48.3 mph N/A   Overcast
8:55 PM 57.2 °F 50.0 °F 77% 29.44 in 10.0 mi WSW 29.9 mph 36.8 mph N/A   Overcast
9:15 PM 57.2 °F 50.0 °F 77% 29.45 in 10.0 mi WSW 26.5 mph 34.5 mph N/A   Overcast
9:35 PM 55.4 °F 50.0 °F 82% 29.47 in 10.0 mi WSW 20.7 mph 29.9 mph N/A   Scattered Clouds
9:55 PM 57.2 °F 51.8 °F 82% 29.48 in 10.0 mi WSW 23.0 mph 28.8 mph N/A   Scattered Clouds
10:15 PM 57.2 °F 51.8 °F 82% 29.49 in 10.0 mi SW 24.2 mph 36.8 mph N/A   Overcast
10:35 PM 57.2 °F 51.8 °F 82% 29.49 in 10.0 mi WSW 24.2 mph 32.2 mph N/A   Overcast
10:55 PM 57.2 °F 51.8 °F 82% 29.51 in 10.0 mi SW 24.2 mph 36.8 mph N/A   Overcast
11:35 PM 57.2 °F 50.0 °F 77% 29.52 in 10.0 mi SW 25.3 mph 34.5 mph N/A   Overcast
11:55 PM 57.2 °F 50.0 °F 77% 29.53 in 10.0 mi WSW 27.6 mph 36.8 mph N/A   Overcast